Regional Weather Roundup
Issued by NWS

Home | Current Version | Previous Version | Text Only | Print | Product List | Glossary On
Versions: 1 2 3 4 5 6 7 8 9 10 11 12 13 14 15 16 17 18 19 20 21 22 23 24 25 26 27 28 29 30 31 32 33 34 35 36 37 38 39 40 41 42 43 44 45 46 47 48 49 50
782
ASUS43 KDTX 150910
RWRMI
MICHIGAN HOURLY REGIONAL WEATHER ROUNDUP
NATIONAL WEATHER SERVICE DETROIT/PONTIAC MI
400 AM EST FRI DEC 15 2017

NOTE: "FAIR" INDICATES FEW OR NO CLOUDS BELOW 12,000 FEET WITH NO
SIGNIFICANT WEATHER AND/OR OBSTRUCTION TO VISIBILITY.

MIZ047>049-052>055-059>063-066>070-074>076-081>083-151000-
SOUTHEAST LOWER MICHIGAN

CITY           SKY/WX    TMP DP  RH WIND       PRES   REMARKS
ADRIAN         CLOUDY    12   5  73 CALM      29.98F
ALMA           FLURRIES  18  18  98 S6        29.91F WCI  10
ANN ARBOR      CLOUDY    16   8  71 S5        29.96F WCI   9
BAD AXE        CLOUDY    15  12  89 SW7       29.92F WCI   5
CARO           CLOUDY    13  11  91 CALM      29.92F
DETROIT CITY   CLOUDY    18   9  68 SW8       29.98F WCI   8
DETROIT        CLOUDY    18   8  65 S7        29.98F WCI   9
FLINT          CLOUDY    17  12  80 S8        29.93  WCI   7
GROSSE ILE     CLOUDY    19   9  67 SW6       29.98F WCI  10
HILLSDALE      CLOUDY    18   9  68 S7        29.93F WCI   8
HOWELL         CLOUDY    18  14  87 S6        29.93F WCI   9

CITY           SKY/WX    TMP DP  RH WIND       PRES   REMARKS
JACKSON        CLOUDY    19  11  70 SW8       29.94F WCI   9
LAMBERTVILLE   CLOUDY    17   8  65 S6        29.99F WCI   9
LANSING        CLOUDY    19  15  84 S8        29.93F WCI   9
LAPEER         CLOUDY    17  12  81 SW3       29.94F
MASON          CLOUDY    19  13  78 CALM      29.94F
MONROE         CLOUDY    15   6  66 CALM      29.99F
MT. CLEMENS    CLOUDY    18  14  86 SW8       29.96F WCI   7
PONTIAC        CLOUDY    16  13  88 SW3       29.93F
PORT HOPE        N/A     17  11  77 S5        29.90F WCI  10
PORT HURON     CLOUDY    12   9  85 CALM      29.97F
TRI CITIES     CLOUDY    16  15  96 S8        29.92F WCI   5
MIDLAND        CLOUDY    18  15  88 S5        29.91F WCI  11
TROY           CLOUDY    18  12  76 SW6       29.98F WCI  10
SAGINAW HB     CLOUDY    18  14  86 S7        29.93F WCI   8
$$
MIZ043>046-050>051-056>058-064>065-071>073-077>080-151000-
SOUTHWEST LOWER MICHIGAN

CITY           SKY/WX    TMP DP  RH WIND       PRES   REMARKS
BATTLE CREEK   CLOUDY    19  13  77 S10       29.93F WCI   7
BENTON HARBOR  CLOUDY    22  14  71 S8        29.94F WCI  12
BIG RAPIDS     FLURRIES  19  16  88 S5        29.85F WCI  12
COLDWATER      CLOUDY    19  12  75 SW6       29.95F WCI  11
HOLLAND        CLOUDY    22  17  81 S8        29.91F WCI  12
GRAND RAPIDS   CLOUDY    21  16  81 S10       29.90F WCI  10
IONIA          CLOUDY    20  17  84 S7        29.90F WCI  12
KALAMAZOO      CLOUDY    20  13  74 SW12      29.94F WCI   8
LUDINGTON      FLURRIES  27  17  66 W13G21    29.83F WCI  17
MARSHALL       CLOUDY    19  11  73 S8        29.94S WCI   8
MOUNT PLEASANT CLOUDY    20  15  82 S5        29.89F WCI  13
MUSKEGON       CLOUDY    28  16  60 SW12G21   29.89F WCI  18
SOUTH HAVEN    CLOUDY    24  16  71 S7        29.93F WCI  16
$$
MIZ016>042-151000-
NORTHERN LOWER MICHIGAN

CITY           SKY/WX    TMP DP  RH WIND       PRES   REMARKS
ALPENA         LGT SNOW  19  15  84 S5        29.85F FOG     WCI  12
BEAVER ISLAND  LGT SNOW  24  21  91 NW5       29.78F WCI  18
BELLAIRE       LGT SNOW  21  19  95 S7        29.83F WCI  12
CADILLAC       LGT SNOW  17  15  91 S5        29.79F WCI  10
CHARLEVOIX     LGT SNOW  22  21  96 S6        29.82F WCI  14
FRANKFORT      LGT SNOW  27  22  83 W10G24    29.82F WCI  17
GAYLORD        LGT SNOW  17  13  84 S10       29.78F FOG     WCI   5
GRAYLING       FLURRIES  17  13  83 S3        29.82F
HARBOR SPRINGS LGT SNOW  20  18  92 S6        29.79F WCI  13
HOUGHTON LAKE  FLURRIES  17  13  84 S5        29.83F WCI  10
MANISTEE       LGT SNOW  22  19  89 SE3       29.84F FOG
OSCODA         CLOUDY    17  11  77 SW9       29.88F WCI   6
PELLSTON       LGT SNOW  20  19  96 CALM      29.79F VSB 1
ROGERS CITY    LGT SNOW  19  16  85 S8        29.84F WCI   9
TRAVERSE CITY  LGT SNOW  21  18  88 S5        29.82F FOG     WCI  15
$$
MIZ007>008-015-151000-
EASTERN UPPER MICHIGAN

CITY           SKY/WX    TMP DP  RH WIND       PRES   REMARKS
KINROSS        LGT SNOW  16  13  88 SE3       29.79F FOG
MACKINAC ISLAN LGT SNOW  22  18  83 S9        29.78F WCI  12
NEWBERRY       LGT SNOW  16  15  98 S5        29.76F WCI   9
S. S. MARIE    LGT SNOW  15  12  88 SE3       29.78F FOG
MUNISING         N/A     18  16  92 S6        29.76F WCI  10
$$
MIZ004>006-011>014-085-151000-
CENTRAL UPPER MICHIGAN

CITY           SKY/WX    TMP DP  RH WIND       PRES   REMARKS
MANISTIQUE     LGT SNOW  17  12  81 NW3       29.77F
ESCANABA       LGT SNOW  18  15  88 W7        29.80S FOG     WCI   9
MENOMINEE      LGT SNOW  20  17  88 VRB7      29.83F FOG     WCI  11
SAWYER-GWINN   LGT SNOW  15  13  91 W6        29.73F WCI   6
$$
MIZ001>003-009>011-084-151000-
WESTERN UPPER MICHIGAN

CITY           SKY/WX    TMP DP  RH WIND       PRES   REMARKS
IRON MOUNTAIN  LGT SNOW  16  12  84 W9        29.75F FOG     WCI   4
HOUGHTON       LGT SNOW  20  13  74 NW7       29.74S WCI  11
COPPER HARBOR    N/A     23  17  78 NE12      29.75F WCI  12
IRONWOOD       LGT SNOW  13  10  88 W14       29.81S FOG     WCI  -2
$$

ABBREVIATIONS USED IN REMARKS
   TC - TEMPERATURE IN CELSIUS
  WCI - WIND CHILL INDEX
   HX - HEAT INDEX
  VSB - VISIBILITY





USA.gov is the U.S. government's official web portal to all federal, state and local government web resources and services.